Weather History for KHYR - November, 2011

Change the Weather History Date:

Friday, November 25, 2011

  Actual Average Record
Temperature  
Mean Temperature 39 °F -  
Max Temperature 48 °F 41 °F 51 °F (1998)
Min Temperature 30 °F 18 °F 1 °F (1996)
Degree Days  
Heating Degree Days 26    
Moisture  
Dew Point 41 °F    
Average Humidity 89    
Maximum Humidity 100    
Minimum Humidity 74    
Precipitation  
Precipitation 0.00 in - - ()
Sea Level Pressure  
Sea Level Pressure 29.73 in    
Wind  
Wind Speed 2 mph (SE)    
Max Wind Speed 7 mph    
Max Gust Speed -    
Visibility 6 miles    
Events      
Averages and records for this station are not official NWS values.
T = Trace of Precipitation, MM = Missing Value Source: NWS Daily Summary

Daily Weather History Graph

Daily Weather History Graph

Search for Another Location

Airport or City:

Trip Planner

Search our weather history database for the weather conditions in past years. The results will help you decide how hot, cold, wet, or windy it might be!

Date:

Astronomy

Nov. 25, 2011 Rise Set
Actual Time 7:19 AM CST 4:25 PM CST
Civil Twilight 6:46 AM CST 4:58 PM CST
Nautical Twilight 6:09 AM CST 5:35 PM CST
Astronomical Twilight 5:33 AM CST 6:11 PM CST
Moon 7:51 AM CST (11/25) 4:50 PM CST (11/25)
Length of Visible Light 10h 12m
Length of Day
9h 06m
New Moon, 0% of the Moon is Illuminated
Nov 25
New Moon
Dec 2
First Quarter
Dec 10
Full
Dec 17
Last Quarter
Dec 24
New

Hourly Weather History & Observations

Time (CST) Temp. Windchill Dew Point Humidity Pressure Visibility Wind Dir Wind Speed Gust Speed Precip Events Conditions
12:53 AM 48.9 °F - 41.0 °F 74% 29.70 in 10.0 mi Calm Calm - N/A   Clear
2:53 AM 43.0 °F - 39.0 °F 86% 29.70 in 10.0 mi Calm Calm - N/A   Clear
3:53 AM 35.1 °F - 34.0 °F 96% 29.71 in 8.0 mi Calm Calm - N/A   Clear
4:53 AM 34.0 °F - 33.1 °F 96% 29.71 in 7.0 mi Calm Calm - N/A   Clear
5:53 AM 33.1 °F - 32.0 °F 96% 29.70 in 7.0 mi Calm Calm - N/A   Clear
6:53 AM 32.0 °F - 30.9 °F 96% 29.72 in 4.0 mi Calm Calm - N/A   Clear
7:53 AM 30.9 °F - 30.0 °F 96% 29.73 in 4.0 mi Calm Calm - N/A   Clear
8:53 AM 37.9 °F - 36.0 °F 93% 29.73 in 4.0 mi Calm Calm - N/A   Clear
9:53 AM 45.0 °F 42.6 °F 39.9 °F 82% 29.74 in 10.0 mi South 4.6 mph - N/A   Clear
11:53 AM 46.9 °F - 41.0 °F 80% 29.70 in 10.0 mi South 5.8 mph - N/A   Clear
1:35 PM 48.2 °F - 42.8 °F 82% 29.69 in 10.0 mi SSE 3.5 mph - N/A   Mostly Cloudy
1:53 PM 48.0 °F - 42.1 °F 80% 29.72 in 10.0 mi ESE 5.8 mph - N/A   Overcast
3:53 PM 48.0 °F - 42.1 °F 80% 29.74 in 9.0 mi SSE 4.6 mph - N/A   Overcast
4:53 PM 46.9 °F - 42.1 °F 83% 29.75 in 10.0 mi Calm Calm - N/A   Overcast
5:53 PM 46.0 °F - 42.1 °F 86% 29.78 in 10.0 mi Calm Calm - N/A   Overcast
6:28 PM 46.4 °F 44.3 °F 42.8 °F 87% 29.72 in 8.0 mi ESE 4.6 mph - N/A   Overcast
6:39 PM 46.4 °F 43.5 °F 42.8 °F 87% 29.72 in 8.0 mi ESE 5.8 mph - N/A   Overcast
6:53 PM 46.9 °F - 43.0 °F 86% 29.76 in 8.0 mi SE 3.5 mph - N/A   Overcast
7:35 PM 46.4 °F - 42.8 °F 87% 29.75 in 5.0 mi Calm Calm - N/A   Overcast
7:53 PM 46.0 °F - 44.1 °F 93% 29.78 in 4.0 mi Calm Calm - N/A   Overcast
8:13 PM 46.4 °F - 44.6 °F 93% 29.75 in 3.0 mi Calm Calm - N/A   Overcast
8:53 PM 45.0 °F 41.8 °F 44.1 °F 97% 29.78 in 2.5 mi ESE 5.8 mph - N/A   Overcast
9:05 PM 44.6 °F 42.2 °F 44.6 °F 100% 29.75 in 3.0 mi ESE 4.6 mph - N/A   Overcast
9:53 PM 45.0 °F 42.6 °F 44.1 °F 97% 29.76 in 3.0 mi ESE 4.6 mph - N/A   Overcast
10:19 PM 46.4 °F 43.5 °F 44.6 °F 93% 29.74 in 5.0 mi SSE 5.8 mph - N/A   Overcast
10:28 PM 46.4 °F 42.9 °F 44.6 °F 93% 29.74 in 4.0 mi SSE 6.9 mph - N/A   Overcast
10:53 PM 46.0 °F 42.5 °F 44.1 °F 93% 29.75 in 3.0 mi SE 6.9 mph - N/A   Overcast
11:24 PM 46.4 °F 44.3 °F 44.6 °F 93% 29.74 in 3.0 mi SE 4.6 mph - N/A   Overcast